Regional Weather Roundup
Issued by NWS Charleston, SC

Current Version | Previous Version | Graphics & Text | Print | Product List | Glossary On
Versions: 1 2 3 4 5 6 7 8 9 10 11 12 13 14 15 16 17 18 19 20 21 22 23 24 25 26 27 28 29 30 31 32 33 34 35 36 37 38 39 40 41 42 43 44 45 46 47 48 49 50
000
ASUS42 KCHS 100025
RWRCHS

REGIONAL WEATHER ROUNDUP
NATIONAL WEATHER SERVICE CHARLESTON SC
800 PM EDT WED JUL 09 2014

NOTE: "FAIR" INDICATES FEW OR NO CLOUDS BELOW 12,000 FEET WITH NO
SIGNIFICANT WEATHER AND/OR OBSTRUCTIONS TO VISIBILITY.

NOT ALL STATIONS ARE QUALITY CONTROLLED BY THE NATIONAL
WEATHER SERVICE. USE DATA WITH CAUTION...ESPECIALLY
DEWPOINT OBSERVATIONS.

SCZ027-030-031-034>040-042>050-100100-
...SOUTH CAROLINA...

CITY           SKY/WX    TMP DP  RH WIND       PRES   REMARKS
N CHARLESTON   PTCLDY    84  74  71 S14       30.03R HX  91
6HR MIN TEMP:  84; 6HR MAX TEMP:  97;

WATERFRONT PRK   N/A     84 N/A N/A S13G20      N/A
FORT JOHNSON   NOT AVBL
MOUNT PLEASANT FAIR      82  75  78 SW8       30.03R
JOHNS ISLAND   CLEAR     82  72  69 S12G21    30.04R
PINOPOLIS        N/A     90  72  55 SW7       29.93R HX  96
MONCKS CORNER    N/A     84  77  79 S9G18     30.02R HX  94
SUMMERVILLE    FAIR      84  73  70 S8        30.03R HX  91
BEAUFORT MCAS  PTCLDY    85  74  69 SW8       30.03R HX  92
6HR MIN TEMP:  85; 6HR MAX TEMP:  94;

BEAUFORT ARPT  NOT AVBL
HILTON HEAD IS PTCLDY    82  73  74 S6        30.05R
GEORGETOWN     NOT AVBL
WALTERBORO     MOCLDY    84  70  61 S12       30.03R
ORANGEBURG     MOCLDY    87  68  52 S8G17     29.99R HX  90
6HR MIN TEMP:  87; 6HR MAX TEMP:  96;

BARNWELL       FAIR      82  66  57 NW5       30.01S
AIKEN          RAIN      73  72  94 W6        30.05S
MANNING        FAIR      88  72  58 S7        30.00R HX  94
KINGSTREE      NOT AVBL
COLUMBIA       LGT RAIN  81  70  69 SW10      29.99R
6HR MIN TEMP:  79; 6HR MAX TEMP:  98; 6HR PCP:  0.06;

SUMTER         MOCLDY    85  71  61 NW6       29.97R HX  90
6HR MIN TEMP:  85; 6HR MAX TEMP:  98;

FLORENCE       PTCLDY    89  67  47 S3        29.97R HX  92
6HR MIN TEMP:  88; 6HR MAX TEMP: 100;

MYRTLE BEACH   CLEAR     82  73  74 SW17G24   30.00R
N MYRTLE BEACH CLEAR     83  75  77 SW23G29   30.00S HX  90
6HR MIN TEMP:  83; 6HR MAX TEMP:  88;


$$

GAZ063-065-086>088-099>101-113>116-118-119-134-136>141-150-100100-
...GEORGIA...

CITY           SKY/WX    TMP DP  RH WIND       PRES   REMARKS
SAVANNAH ARPT  CLOUDY    80  74  81 S5        30.02F
HUNTER AAF     MOCLDY    83  72  69 S6        30.02R
6HR MIN TEMP:  82; 6HR MAX TEMP:  93; 6HR PCP:  0.01;

FORT STEWART   MOCLDY    81  74  78 E6        30.01S
6HR MIN TEMP:  80; 6HR MAX TEMP:  93; 6HR PCP: TRACE;

STATESBORO     NOT AVBL
SYLVANIA       PTCLDY    84  74  71 S8        30.02S HX  92
CLAXTON        MOCLDY    88  77  70 CALM      30.01R HX 100
THOMSON        CLOUDY    76  76 100 CALM      30.07R
AUGUSTA-BUSH   LGT RAIN  77  69  76 N3        30.01R
6HR MIN TEMP:  77; 6HR MAX TEMP:  99; 6HR PCP: TRACE;

AUGUSTA-DANIEL MOCLDY    79  69  71 VRB3      30.03R
SWAINSBORO     MOCLDY    88  70  55 N6        30.03R HX  92
VIDALIA          N/A     88  68  51 CALM      30.01S HX  91
ALMA           CLEAR     88  66  48 SW12G26   30.02R HX  90
6HR MIN TEMP:  88; 6HR MAX TEMP:  95;

WAYCROSS       PTCLDY    87  73  62 SW12      30.02S HX  93
JESUP          NOT AVBL
BRUNSWICK      CLEAR     86  73  66 S9        30.04S HX  93
SAINT SIMONS   CLEAR     84  73  69 S5G17     30.04R HX  90
6HR MIN TEMP:  84; 6HR MAX TEMP:  89;


$$

SCZ027-028-034-036>038-045-046-048>050-GAZ119-141-100100-
...LAKE AND SUPPLEMENTAL COASTAL OBSERVATIONS...

STATION/POSITION TIME  TEMP    WIND        PRES    WAVE   SWELL
                       AIR SEA DIR/SP/G            HT/PER HT/PER/DIR
                 (UTC) (F)     (DEG/KT/KT) (MB)    (FT/S) (FT/S/D)
UPR LAKE MARION  NOT AVBL
WINYAH BAY       0000   83     200/ 12     1016.0S
LAKE MURRAY      0000   80     280/  4/  7 1015.2F
ACE BASIN NERRS  0000   83     180/  2     1017.0S
FORT PULASKI     0000   83 78  180/  7/ 13   N/A
SAPELO ISLAND    0000   84     180/ 15     1018.0S

$$

ANZ835-935-AMZ111-154-330-350-352-354-374-450-454-472-100100-
...C-MAN AND BUOY OBSERVATIONS...

STATION/POSITION TIME  TEMP    WIND        PRES    WAVE   SWELL
                       AIR SEA DIR/SP/G            HT/PER HT/PER/DIR
                 (UTC) (F)     (DEG/KT/KT) (MB)    (FT/S) (FT/S/D)
FOLLY BEACH CMAN 0000   82     210/ 17/ 21 1017.5R
BUOY 41004       0000   83 82  200/ 17/ 19 1016.1R   4/ 9   2/ 9
BUOY 41008       0000   83 84  180/ 17/ 19 1017.2R   3/ 4   2/110/ 9
5E ST. MARYS GA  0000      83                N/A     4/ 4
FRYING PAN BUOY  NOT AVBL
BUOY 41025       0000          340/ 16/ 17 1017.0R   5/ 6   2/130/ 9
CAPE LOOKOUT NC  0000   81     200/ 17/ 21 1016.4F
BUOY 41002       2248   80 81  200/ 14/ 16 1020.3F   4/ 5   2/110/ 9
BUOY 41010       0000   81 83  200/ 14/ 16 1020.0R   3/ 8   2/120/ 8
BUOY 41012       NOT AVBL
ST AUGUSTINE FL  0000   83     170/ 17/ 18 1018.9R
CAPERS NEARSHORE 2300   82     220/ 17/ 19   N/A
FRIPP NEARSHORE  2300   84     210/ 16/ 19   N/A


$$


USA.gov is the U.S. government's official web portal to all federal, state and local government web resources and services.